Find Starlink 2417

NORAD ID: 48096 Int'l Des: 2021-027 Owner: SPXS Country: US Constellation: starlink operational
LEOCIRCULAR

当前视图

正在加载3D地球...

About Starlink 2417

Starlink 2417 (NORAD 48096) is a starlink constellation satellite (v1.0) launched Apr 7, 2021 by SPXS of US. It operates in LEO, CIRCULAR orbit with a mass of 260.00 kg.

关于 Starlink 2417

正在加载描述...

即将过境

Passes for default location (London). Set your location on the main map for personalized predictions.

高度历史

Loading altitude history...

两行轨道根数

1 48096U 21027E 26169.97033850 .00002478 00000-0 91523-4 0 9993
2 48096 53.1619 54.4378 0001220 86.5425 273.5716 15.31720162288029
Epoch: Jun 18, 2026 • Age: 12 hours

当前状态

高度 472.5 km
速度 7.63 km/s
星下点 33.95°N, 131.8°E
发射日期 Apr 7, 2021
运行时间 5.1 years
类型 internet

技术详情

分类 Payload
质量 260.00 kg
干质量 248.00 kg
总质量 260.00 kg
长度 0.20 m
直径 2.80 m
跨度 9.00 m
形状 Box + pan
制造商 SPXS
平台类型 Starlink
阶段状态 In Orbit
所有者/国家 SPXS/US

Most Searched